www.pogodaiklimat.ru

Погода и климат >> Архив погоды >> Казахстан >> Анкаты


ПОГОДА в Анкаты

  • Прогноз погоды в Анкаты
  • Монитор погоды в Анкаты
  • Климат города

АРХИВ ПОГОДЫ в Анкаты

Время (UTC), дата Ветер
(напр.,м/с)
 
Видим.   Явления Облачность Т
(С)
Тd
(С)
f
(%)
Тe
(С)
Тes
(С)
Комфортность P
(гПа)
Po
(гПа)
Тmin
(С)
Tmax
(С)
R
(мм)
R24
(мм)
S
(см)
21 20.06 ЮВ 1 20 км ясно +11.8 -32.2 3 +13 +13 1005.3 1002.1
00 21.06 ЮВ 1 18 км ясно +10.0 -33.4 3 +11 +11 1005.8 1002.5
03 21.06 ЮЗ 1 20 км ясно +16.9 -28.7 3 +18 +22 1006.4 1003.2 <0.5
06 21.06 З 3 20 км ясно +24.1 -23.8 3 +21 +31 комфорт 1005.8 1002.7
09 21.06 ЮЗ 3 20 км н/о +26.4 -22.2 3 +22 +22 комфорт 1004.9 1001.8
12 21.06 СЗ 1 20 км н/о +29.3 -20.3 3 +25 +25 комфорт 1003.9 1000.9
15 21.06 ЮВ 3 6000 м ясно +27.8 -21.3 3 +23 +24 комфорт 1002.9 999.9 +29.4
18 21.06 ЮВ 3 20 км ясно +19.6 -26.8 3 +19 +19 1003.1 1000.0 +29.4
21 21.06 Ю 4 20 км ясно +16.6 -28.9 3 +16 +16 1002.9 999.7
00 22.06 Ю 3 20 км н/о +19.3 -27.0 3 +19 +19 1002.4 999.3
03 22.06 ЮВ 2 20 км н/о +20.6 -26.2 3 +20 +20 1003.4 1000.3 <0.5
09 22.06 З 4 18 км н/о +28.3 -21.0 3 +24 +24 комфорт 1002.1 999.1
12 22.06 З 4 20 км ясно +27.2 -21.7 3 +23 +30 комфорт 1001.5 998.5
15 22.06 СВ 2 20 км н/о +21.5 -25.5 3 +19 +19 1003.3 1000.2 +28.4
18 22.06 С 3 20 км ясно +17.3 -28.4 3 +17 +17 1004.9 1001.7 +28.4 6
21 22.06 СЗ 3 20 км н/о +15.9 -29.3 3 +16 +16 1006.0 1002.8
00 23.06 СЗ 3 20 км н/о +12.6 -31.6 3 +12 +12 1007.3 1004.1
03 23.06 С 3 20 км ясно +15.3 -29.8 3 +15 +18 1008.4 1005.2 1
06 23.06 СЗ 3 20 км ясно +21.2 -22.5 4 +19 +30 1009.1 1006.0
09 23.06 СЗ 4 20 км н/о +23.4 -21.0 4 +20 +20 1009.5 1006.4
12 23.06 З 5 18 км ясно +23.8 -20.7 4 +21 +26 комфорт 1009.1 1006.0
15 23.06 СЗ 5 20 км ясно +22.5 -21.6 4 +20 +20 1009.3 1006.2 +23.8
18 23.06 ЮВ 2 20 км ясно +15.9 -29.3 3 +16 +16 1010.1 1006.9 +23.8
21 23.06 Ю 3 20 км ясно +13.5 -31.0 3 +13 +13 1009.9 1006.7
00 24.06 Ю 3 20 км н/о +14.1 -30.6 3 +14 +14 1009.3 1006.1
03 24.06 Ю 6 20 км ясно +18.5 -27.6 3 +18 +19 1008.4 1005.2 1
06 24.06 Ю 7 19 км ясно +24.5 -23.5 3 +21 +25 комфорт 1007.0 1003.9
09 24.06 Ю 8 20 км н/о +26.5 -22.2 3 +22 +22 комфорт 1005.4 1002.3
12 24.06 Ю 7 20 км н/о +25.3 -23.0 3 +22 +22 комфорт 1003.1 1000.0
15 24.06 ЮЗ 5 19 км н/о +22.7 -24.7 3 +20 +20 1000.7 997.6 +27.0
18 24.06 Ю 6
{16}
2400 м н/о +17.2 -28.5 3 +16 +16 999.4 996.2 +27.0
21 24.06 З 6 20 км ясно +14.8 -30.1 3 +14 +14 1000.5 997.3
00 25.06 З 6 20 км н/о +13.2 -31.2 3 +12 +12 1003.0 999.8
03 25.06 З 6 20 км н/о +13.3 -31.1 3 +12 +12 1006.0 1002.8 <0.5
06 25.06 СЗ 6 20 км ясно +18.5 -27.6 3 +18 +23 1007.6 1004.4 10
09 25.06 З 7 20 км н/о +22.5 -21.6 4 +20 +20 1008.7 1005.6
12 25.06 З 7 20 км н/о +22.7 -21.5 4 +20 +20 1009.5 1006.4
15 25.06 З 6 20 км н/о +22.2 -21.8 4 +20 +20 1010.5 1007.4 +23.5
18 25.06 З 3 19 км ясно +15.5 -29.6 3 +15 +15 1012.0 1008.8 +23.5
21 25.06 ЮЗ 2 20 км ясно +12.1 -31.9 3 +12 +12 1013.1 1009.8
15 27.06 н/о н/о +31.5
18 27.06 Ю 3 20 км н/о +25.1 -23.1 3 +21 +21 комфорт 1012.3 1009.2 +31.5

 

Местоположение метеостанции Анкаты (Западно-Казахстанская область, Казахстан): широта 50.83 долгота 52.00 высота над уровнем моря 25 м.

В архиве по умолчанию представлена погода в Анкаты за последнюю неделю. Архивные данные за месяц целиком и за предыдущие месяцы, начиная с января 2011 года, Вы можете получить, выбрав интересующий диапазон дат из раскрывающегося списка и нажав кнопку "Ввод!".

Внимание! Время в таблицах - всемирное. Для получения местного времени необходимо прибавить поправку, которая в Анкаты равна 5 ч.

Смотрите также архив погоды в соседних городах и на ближайших метеорологических станциях:

Погода в Уральске (Западно-Казахстанская область, Казахстан) (69 км)
Погода в Джамбейты (Западно-Казахстанская область, Казахстан) (76 км)
Погода в Аксае (Западно-Казахстанская область, Казахстан) (80 км)
Погода в Январцево (Западно-Казахстанская область, Казахстан) (87 км)
Погода в Чапаево (Западно-Казахстанская область, Казахстан) (91 км)
Погода в Первомайском (Оренбургская область, Россия) (121 км)
Погода в Каменке (Западно-Казахстанская область, Казахстан) (122 км)
Погода в Илеке (Оренбургская область, Россия) (123 км)
Погода в Чингирлау (Западно-Казахстанская область, Казахстан) (150 км)
Погода в Перелюбе (Саратовская область, Россия) (164 км)

Пояснения к столбцам:

Ветер - указаны скорость ветра в м/с - средняя за 10 мин, порывы в срок и между сроками (в фигурных скобках) и направление, откуда дует ветер: С - северный, СВ - северо-восточный, В - восточный, ЮВ - юго-восточный, Ю - южный, ЮЗ - юго-западный, З - западный, СЗ - северо-западный.
Видимость - горизонтальная дальность видимости в метрах или километрах. При видимости от 1 до 10 км при отсутствии осадков обычно наблюдается дымка, при ухудшении видимости до 1 км и менее - туман. В сухую погоду видимость может ухудшаться дымом, пылью или мглою.
Явления - указаны атмосферные явления, наблюдавшиеся в срок или в последний час перед сроком; фигурными скобками обозначены явления, наблюдавшиеся между сроками (за 1-3 часа до срока); квадратными скобками обозначены град или гололедные отложения с указанием их диаметра в мм.
Облачность - указаны через наклонную черту общая и нижняя облачность в баллах и высота нижней границы облаков в метрах; квадратными скобками обозначены формы облаков: Ci - перистые, Cs - перисто-слоистые, Cc - перисто-кучевые, Ac - высококучевые, As - высокослоистые, Sc - слоисто-кучевые, Ns - слоисто-дождевые, Cu - кучевые, Cb - кучево-дождевые. Подробнее классификацию облаков см. в Атласе облаков (PDF).
T - Температура воздуха - температура, измеренная на высоте 2 м над землей.
Td - Температура точки росы - температура, при понижении до которой содержащийся в воздухе водяной пар достигнет насыщения.
f - Относительная влажность воздуха - влажноcть воздуха, измеренная на высоте 2 м над землей.
Te - Эффективная температура - температура, которую ощущает одетый по сезону человек в тени. Характеристика душности погоды. При расчете учитывается влияние влажности воздуха и скорости ветра на теплоощущения человека.
Tes - Эффективная температура на солнце - температура, которую ощущает человек, с поправкой на солнечный нагрев. Характеристика знойности погоды. Зависит от высоты солнца над горизонтом, облачности и скорости ветра. Ночью, в пасмурную погоду, а также при ветре 12 м/с и более поправка равна нулю.
P - Атмосферное давление - приведенное к уровню моря атмосферное давление.
Po - Атмосферное давление - измеренное на уровне метеостанции атмосферное давление.
Tmin - Минимальная температура - минимум температуры воздуха на высоте 2 м над землей.
Tmax - Максимальная температура - максимум температуры воздуха на высоте 2 м над землей.
R - Количество осадков - Количество выпавших осадков за период времени, мм. При наведении курсора мыши на число - период времени, за который выпало указанное количество осадков.
R24 - Количество осадков - Количество выпавших осадков за 24 часа, мм.
S - Снежный покров - Высота снежного покрова, см. При наведении курсора мыши на число - состояние снежного покрова и степень покрытия местности в баллах.